CW9809 Weather Reports


Display with metric or nautical units.
time (UTC)temp
F
wind
direction
speed
MPH
gust
MPH
rain 1hr
in
rain 24hr
in
rain mn
in
humidity
%
barometer
mb
20260509110007 44 15 0.0 0.0 0.00 0.02 0.02 89 1013.9
20260509104513 44 12 0.0 0.0 0.00 0.02 0.02 89 1013.8
20260509103018 44 5 0.0 0.0 0.00 0.02 0.02 89 1013.8
20260509101505 44 360 0.0 0.0 0.00 0.02 0.02 89 1013.8
20260509100008 44 360 0.0 0.0 0.00 0.02 0.02 88 1013.8
20260509094515 44 5 0.0 0.0 0.00 0.02 0.02 88 1013.7
20260509093015 44 5 0.0 0.0 0.01 0.02 0.02 87 1013.5
20260509091522 44 360 0.0 0.0 0.01 0.02 0.02 87 1013.6
20260509090003 44 5 0.0 0.0 0.02 0.02 0.02 85 1013.7
20260509084509 45 360 0.0 0.0 0.02 0.02 0.02 83 1013.5
20260509083012 45 5 0.0 0.0 0.01 0.01 0.01 82 1013.6
20260509081516 46 5 0.0 0.0 0.01 0.01 0.01 79 1013.6
20260509080023 46 360 0.0 0.0 0.00 0.00 0.00 77 1013.5
20260509074507 45 5 0.0 0.0 0.00 0.00 0.00 78 1013.3
20260509073025 45 360 0.0 0.0 0.00 0.00 0.00 77 1013.0
20260509071513 46 5 0.0 0.0 0.00 0.00 0.00 76 1013.0
20260509070018 46 5 0.0 0.0 0.00 0.00 0.00 74 1013.2
20260509064524 46 5 0.0 0.0 0.00 0.00 0.00 74 1013.4
20260509063008 46 5 0.0 0.0 0.00 0.00 0.00 75 1013.4
20260509061509 46 360 0.0 0.0 0.00 0.00 0.00 76 1013.8
20260509060022 46 5 0.0 0.0 0.00 0.00 0.00 76 1013.8
20260509054519 46 5 0.0 0.0 0.00 0.00 0.00 75 1013.8
20260509053041 46 5 0.0 0.0 0.00 0.00 0.00 74 1013.9
20260509051528 46 360 0.0 0.0 0.00 0.00 0.00 75 1013.9
20260509050011 46 360 0.0 0.0 0.00 0.00 0.00 75 1014.0
20260509044516 46 5 0.0 0.0 0.00 0.00 0.00 75 1014.0
20260509043037 46 5 0.0 0.0 0.00 0.00 0.00 74 1014.0
20260509041525 46 5 0.0 0.0 0.00 0.00 0.00 74 1014.0
20260509040027 46 360 0.0 0.0 0.00 0.00 0.00 73 1014.0
20260509034512 46 360 0.0 0.0 0.00 0.00 0.00 70 1013.9
20260509033015 45 5 0.0 0.0 0.00 0.00 0.00 72 1013.7
20260509031523 46 5 0.0 0.0 0.00 0.00 0.00 71 1013.7
20260509030027 46 360 0.0 0.0 0.00 0.00 0.00 69 1013.6
20260509024529 47 360 0.0 0.0 0.00 0.00 0.00 67 1013.5
20260509023013 47 360 0.0 0.0 0.00 0.00 0.00 65 1013.6
20260509021520 48 5 0.0 0.0 0.00 0.00 0.00 64 1013.4
20260509020022 48 5 0.0 0.0 0.00 0.00 0.00 63 1013.6
20260509014530 49 5 0.0 0.0 0.00 0.00 0.00 59 1013.5
20260509013030 49 360 0.0 0.0 0.00 0.00 0.00 57 1013.3
20260509011515 49 360 0.0 0.0 0.00 0.00 0.00 58 1013.1
20260509010030 50 5 0.0 0.0 0.00 0.00 0.00 58 1012.9
20260509004524 50 5 0.0 0.0 0.00 0.00 0.00 58 1012.6
20260509003025 51 5 0.0 0.0 0.00 0.00 0.00 57 1012.2
20260509001530 52 360 0.0 0.0 0.00 0.00 0.00 56 1012.0
20260509000030 53 5 0.0 0.0 0.00 0.00 0.00 52 1012.2
20260508234521 54 13 0.0 0.0 0.00 0.00 0.00 50 1011.9
20260508233029 55 319 0.0 5.0 0.00 0.00 0.00 48 1011.7
20260508231528 55 17 0.0 8.0 0.00 0.00 0.00 48 1011.6
20260508230030 56 360 2.0 10.0 0.00 0.00 0.00 48 1011.5
20260508224527 56 33 3.0 8.0 0.00 0.00 0.00 48 1011.2
20260508223023 56 51 2.0 6.0 0.00 0.00 0.00 50 1011.1
20260508221525 56 40 2.0 8.0 0.00 0.00 0.00 53 1011.1
20260508220027 56 19 0.0 9.0 0.00 0.00 0.00 53 1011.3
20260508214533 56 11 1.0 11.0 0.00 0.00 0.00 57 1011.4
20260508213028 57 33 2.0 8.0 0.00 0.00 0.00 54 1011.3
20260508211524 56 59 1.0 7.0 0.00 0.00 0.00 56 1011.2
20260508210034 57 279 0.0 13.0 0.00 0.00 0.00 57 1011.0
20260508204535 56 33 0.0 8.0 0.00 0.00 0.00 59 1011.0
20260508203014 55 321 0.0 6.0 0.00 0.00 0.00 61 1011.1
20260508201520 55 336 1.0 9.0 0.00 0.00 0.00 62 1011.2
20260508200024 55 180 0.0 8.0 0.00 0.00 0.00 65 1011.3
20260508194508 54 5 1.0 12.0 0.00 0.00 0.00 67 1011.5
20260508193008 53 304 0.0 9.0 0.00 0.00 0.00 68 1011.4
20260508191515 52 219 0.0 7.0 0.00 0.00 0.00 75 1011.6
20260508190020 53 287 0.0 9.0 0.00 0.00 0.00 64 1011.8
20260508184526 55 36 2.0 11.0 0.00 0.00 0.00 56 1011.2
20260508183008 57 352 0.0 10.0 0.00 0.00 0.00 53 1010.9
20260508181512 55 55 5.0 10.0 0.00 0.00 0.00 54 1011.0
20260508180017 55 17 3.0 11.0 0.00 0.00 0.00 55 1011.4
20260508174522 55 336 2.0 13.0 0.00 0.00 0.00 52 1011.4
20260508173026 55 332 7.0 17.0 0.00 0.00 0.00 50 1011.3
20260508171535 55 11 4.0 15.0 0.00 0.00 0.00 49 1011.1
20260508170013 55 327 1.0 10.0 0.00 0.00 0.00 50 1010.9
20260508164520 55 248 2.0 9.0 0.00 0.00 0.00 49 1011.1
20260508163022 58 48 1.0 8.0 0.00 0.00 0.00 43 1010.7
20260508161543 59 47 1.0 8.0 0.00 0.00 0.00 42 1011.0
20260508160029 58 58 0.0 6.0 0.00 0.00 0.00 47 1011.0
20260508154515 58 338 0.0 7.0 0.00 0.00 0.00 44 1011.3
20260508153032 58 333 0.0 10.0 0.00 0.00 0.00 46 1011.2
20260508151524 57 202 1.0 8.0 0.00 0.00 0.00 48 1011.3
20260508150028 57 271 0.0 8.0 0.00 0.00 0.00 48 1011.4
20260508144527 55 287 0.0 8.0 0.00 0.00 0.00 53 1011.4
20260508143015 55 203 2.0 8.0 0.00 0.00 0.00 53 1011.4
20260508141521 53 180 0.0 4.0 0.00 0.00 0.00 53 1011.5
20260508140026 52 261 0.0 8.0 0.00 0.00 0.00 58 1011.6
20260508134533 52 41 2.0 8.0 0.00 0.00 0.00 57 1011.7
20260508133028 51 319 0.0 8.0 0.00 0.00 0.00 58 1012.0
20260508131519 50 44 0.0 10.0 0.00 0.00 0.00 61 1012.0
20260508130022 50 273 0.0 2.0 0.00 0.00 0.00 61 1012.1
20260508124529 49 38 1.0 8.0 0.00 0.00 0.00 63 1012.0
20260508123030 48 10 0.0 5.0 0.00 0.00 0.00 67 1012.0
20260508121530 48 29 0.0 0.0 0.00 0.00 0.00 69 1012.0
20260508120022 47 360 0.0 3.0 0.00 0.00 0.00 70 1012.1
20260508114525 46 11 0.0 4.0 0.00 0.00 0.00 71 1011.9
20260508113008 46 337 0.0 0.0 0.00 0.00 0.00 71 1011.9
20260508111516 45 29 0.0 0.0 0.00 0.00 0.00 71 1011.7